sat.trackr.live / text

‹ back to catalog

ECHOSTAR 14

NORAD 36499 · 2010-010A

PAYLOAD ACTIVE UNKNOWN

§ Identity

Operator
Country
US
Launch date
2010-03-20
Launch site
TYMSC
Launch vehicle
Mass (kg)
RCS (m²)
46.23

Purposes: comms

External: N2YO · Heavens-Above · Gunter

§ Orbital elements

Epoch: 2026-09-20T03:51:32.541984Z

Period
1,436.11 min
Inclination
0.0156°
Eccentricity
0.0002014
Mean motion
1.00271163 rev/d
Perigee alt
35,778.3 km
Apogee alt
35,795.3 km
Semi-major
42,164.9 km
B*
0.0000e+0
RAAN
221.6451°
Arg perigee
299.0249°
Mean anomaly
137.3915°
Rev number
4,750

§ Raw data

ECHOSTAR 141 36499U 10010A   26263.16079331 -.00000004  00000+0  00000+0 0  99952 36499   0.0156 221.6451 0002014 299.0249 137.3915  1.00271163 47504

JSON: /api/v1/satellites/36499 · /tle

For live sub-satellite position, see the globe view (requires WebGL).

§ Visibility from observer

Set your observer location to see the next 7 days of passes ≥ 10°. The values pass through the URL so the page stays shareable.

No JS? Fill the form by hand. The geolocation button needs JavaScript.